Tracking 29932 objects as of 3-Dec-2024
HD Live streaming from Space Station
objects crossing your sky now

STARLINK-31663

Track STARLINK-31663 now!
10-day predictions
STARLINK-31663 is classified as:


NORAD ID: 59576
Int'l Code: 2024-076N
Perigee: 450.1 km
Apogee: 452.3 km
Inclination: 43.0 °
Period: 93.5 minutes
Semi major axis: 6822 km
RCS: Unknown
Launch date: April 23, 2024
Source: United States (US)
Launch site: AIR FORCE EASTERN TEST RANGE (AFETR)
Your satellite tracking list
Your tracking list is empty




NASA's NSSDC Master Catalog

Two Line Element Set (TLE):
1 59576U 24076N   24338.41796769 -.00000177  00000-0  30280-5 0  9994
2 59576  43.0005 106.4346 0001633 261.8745  98.1927 15.40697506 35812
Source of the keplerian elements: AFSPC